Location: Unspecified
(40.9447°N, 78.9903°W)
Time: 11:22:26
(UTC-04:00)

Resurs 1-4 Rocket - Pass Details

Date: 28 July 2021
Orbit: 799 x 815 km, 98.6° (Epoch: 23 September)

Event Time Altitude Azimuth Distance (km) Brightness Sun altitude
Rises 01:41:46 0° 29° (NNE) 3,339 6.3 -30.0°
Reaches altitude 10° 01:44:44 10° 45° (NE) 2,399 5.1 -29.9°
Enters shadow 01:48:24 20° 89° (E) 1,775 3.9 -29.8°
